Tracking 18647 objects as of 28-May-2017
HD Live streaming from Space Station
objects crossing your sky now

COSMOS 1974

Track COSMOS 1974 now!
COSMOS 1974 is classified as:


NORAD ID: 19554
Int'l Code: 1988-092A
Perigee: 5,761.9 km
Apogee: 34,607.1 km
Inclination: 69.8 °
Period: 717.8 minutes
Semi major axis: 26555 km
RCS: 16.1296 m2 (large)
Launch date: October 3, 1988
Source: Commonwealth of Independent States (former USSR) (CIS)
Launch site: PLESETSK MISSILE AND SPACE COMPLEX (PKMTR)
Your satellite tracking list
Your tracking list is empty





NASA's NSSDC Master Catalog

Two Line Element Set (TLE):
1 19554U 88092A   17147.40224347 -.00000701 +00000-0 +00000-0 0  9996
2 19554 069.8114 317.7261 5431123 149.1897 018.1457 02.00618603209834
Source of the keplerian elements: AFSPC